SWA2223 KTPA-KSTL

Flight info

Callsign SWA2223
Flight time 2h 13m
Altitude 34000
Route ENDED2 LACEN PATOY Q116 VLKNN GETME J151 BEATS VISQA BOOSH3
Aircraft B737/M-SDE2E3FGHIRWXY/LB1

Departure

Time 2026-04-30 18:29
Airport Tampa International Airport (KTPA)

Arrival

Time 2026-04-30 20:42
Airport St. Louis Lambert International Airport (KSTL)
Time Latitude Longitude Altitude Speed Heading
2026-04-30 18:15 27.98163 -82.53155 40 ft 0 kts 342°
2026-04-30 18:20 27.98161 -82.53155 40 ft 2 kts 343°
2026-04-30 18:20 27.98137 -82.53146 42 ft 4 kts 348°
2026-04-30 18:21 27.98112 -82.53146 41 ft 4 kts 28°
2026-04-30 18:21 27.98099 -82.53162 41 ft 2 kts 91°
2026-04-30 18:21 27.98099 -82.53164 42 ft 0 kts 92°
2026-04-30 18:23 27.98099 -82.53158 42 ft 4 kts 92°
2026-04-30 18:23 27.98101 -82.53086 40 ft 13 kts 75°
2026-04-30 18:23 27.98180 -82.53048 42 ft 15 kts
2026-04-30 18:23 27.98300 -82.53043 41 ft 18 kts
2026-04-30 18:24 27.98483 -82.53144 40 ft 16 kts 348°
2026-04-30 18:24 27.98600 -82.53144 41 ft 16 kts 353°
2026-04-30 18:24 27.98640 -82.53201 45 ft 15 kts 272°
2026-04-30 18:25 27.98644 -82.53321 56 ft 15 kts 272°
2026-04-30 18:25 27.98653 -82.53577 59 ft 22 kts 272°
2026-04-30 18:25 27.98659 -82.53771 46 ft 26 kts 272°
2026-04-30 18:26 27.98764 -82.53946 46 ft 16 kts
2026-04-30 18:26 27.98890 -82.53942 45 ft 20 kts
2026-04-30 18:26 27.99035 -82.53937 44 ft 22 kts
2026-04-30 18:27 27.99316 -82.53932 43 ft 10 kts 346°
2026-04-30 18:27 27.99341 -82.53951 45 ft 5 kts 309°
2026-04-30 18:28 27.99324 -82.54129 45 ft 13 kts 207°
2026-04-30 18:28 27.99205 -82.54137 46 ft 35 kts 181°
2026-04-30 18:28 27.97755 -82.54190 97 ft 159 kts 181°
2026-04-30 18:29 27.96627 -82.54183 713 ft 163 kts 183°
2026-04-30 18:29 27.93465 -82.55839 2137 ft 206 kts 246°
2026-04-30 18:30 27.94231 -82.59119 2769 ft 254 kts 314°
2026-04-30 18:30 27.97465 -82.60959 4343 ft 267 kts 338°
2026-04-30 18:31 27.99235 -82.61649 5198 ft 271 kts 339°
2026-04-30 18:31 28.02826 -82.63030 6988 ft 275 kts 338°
2026-04-30 18:32 28.06492 -82.64474 8815 ft 283 kts 338°
2026-04-30 18:32 28.08358 -82.65217 9763 ft 286 kts 338°
2026-04-30 18:32 28.12287 -82.66801 10785 ft 324 kts 337°
2026-04-30 18:33 28.14474 -82.67688 11237 ft 340 kts 336°
2026-04-30 18:33 28.18975 -82.69507 12905 ft 347 kts 335°
2026-04-30 18:33 28.21266 -82.70435 13667 ft 352 kts 335°
2026-04-30 18:34 28.23590 -82.71377 14438 ft 357 kts 335°
2026-04-30 18:34 28.28309 -82.73292 16121 ft 360 kts 335°
2026-04-30 18:34 28.30662 -82.74246 17025 ft 361 kts 335°
2026-04-30 18:35 28.33044 -82.75216 17685 ft 367 kts 335°
2026-04-30 18:35 28.35464 -82.76201 18334 ft 372 kts 335°
2026-04-30 18:35 28.37912 -82.77197 19007 ft 376 kts 335°
2026-04-30 18:36 28.43015 -82.78864 20250 ft 391 kts 346°
2026-04-30 18:36 28.45723 -82.79293 20838 ft 396 kts 347°
2026-04-30 18:36 28.51241 -82.80113 21852 ft 405 kts 347°
2026-04-30 18:37 28.54051 -82.80556 22324 ft 409 kts 346°
2026-04-30 18:37 28.56876 -82.81012 22830 ft 412 kts 346°
2026-04-30 18:37 28.59720 -82.81493 23299 ft 415 kts 346°
2026-04-30 18:37 28.62583 -82.82008 23733 ft 418 kts 345°
2026-04-30 18:38 28.65467 -82.82538 24150 ft 421 kts 345°
2026-04-30 18:38 28.68330 -82.83065 24550 ft 424 kts 345°
2026-04-30 18:38 28.71250 -82.83599 24959 ft 427 kts 345°
2026-04-30 18:38 28.74192 -82.84135 25384 ft 429 kts 345°
2026-04-30 18:39 28.77143 -82.84670 25785 ft 431 kts 346°
2026-04-30 18:39 28.80110 -82.85208 26176 ft 433 kts 346°
2026-04-30 18:39 28.83098 -82.85749 26556 ft 436 kts 346°
2026-04-30 18:39 28.86102 -82.86294 26931 ft 438 kts 345°
2026-04-30 18:40 28.89119 -82.86841 27313 ft 440 kts 345°
2026-04-30 18:40 28.92129 -82.87385 27933 ft 435 kts 345°
2026-04-30 18:40 28.95103 -82.87924 28456 ft 433 kts 345°
2026-04-30 18:40 28.98091 -82.88469 28706 ft 437 kts 345°
2026-04-30 18:41 29.01116 -82.89021 28973 ft 441 kts 345°
2026-04-30 18:41 29.04112 -82.89725 29344 ft 436 kts 338°
2026-04-30 18:41 29.06938 -82.90909 29813 ft 430 kts 331°
2026-04-30 18:41 29.09574 -82.92452 30322 ft 423 kts 323°
2026-04-30 18:42 29.11979 -82.94357 30856 ft 418 kts 320°
2026-04-30 18:42 29.16643 -82.98256 31930 ft 413 kts 320°
2026-04-30 18:42 29.18962 -83.00183 32407 ft 412 kts 320°
2026-04-30 18:45 29.41450 -83.18645 35931 ft 400 kts 321°
2026-04-30 18:45 29.43706 -83.20502 35936 ft 398 kts 320°
2026-04-30 18:46 29.48152 -83.24161 35934 ft 391 kts 320°
2026-04-30 18:46 29.52578 -83.27809 35943 ft 392 kts 320°
2026-04-30 18:47 29.57004 -83.31461 35938 ft 392 kts 320°
2026-04-30 18:47 29.61434 -83.35122 35936 ft 392 kts 320°
2026-04-30 18:48 29.65834 -83.38763 35940 ft 393 kts 320°
2026-04-30 18:48 29.70273 -83.42439 35933 ft 393 kts 320°
2026-04-30 18:49 29.74708 -83.46118 35936 ft 393 kts 320°
2026-04-30 18:49 29.79136 -83.49793 35937 ft 393 kts 320°
2026-04-30 18:50 29.83567 -83.53474 35935 ft 392 kts 320°
2026-04-30 18:50 29.87991 -83.57150 35936 ft 392 kts 320°
2026-04-30 18:51 29.92390 -83.60794 35936 ft 392 kts 320°
2026-04-30 18:51 29.96816 -83.64462 35933 ft 392 kts 320°
2026-04-30 18:52 30.01235 -83.68132 35937 ft 391 kts 320°
2026-04-30 18:52 30.05643 -83.71800 35937 ft 390 kts 320°
2026-04-30 18:53 30.10044 -83.75464 35934 ft 390 kts 320°
2026-04-30 18:53 30.14438 -83.79127 35934 ft 389 kts 320°
2026-04-30 18:54 30.18822 -83.82785 35937 ft 389 kts 320°
2026-04-30 18:54 30.23196 -83.86458 35933 ft 388 kts 320°
2026-04-30 18:55 30.27534 -83.90106 35936 ft 388 kts 320°
2026-04-30 18:55 30.34081 -83.95621 35936 ft 388 kts 320°
2026-04-30 18:56 30.40619 -84.01134 35936 ft 388 kts 320°
2026-04-30 18:57 30.47189 -84.06685 35939 ft 388 kts 320°
2026-04-30 18:57 30.51546 -84.10371 35935 ft 388 kts 320°
2026-04-30 18:58 30.58073 -84.15901 35937 ft 387 kts 319°
2026-04-30 18:59 30.64584 -84.21425 35925 ft 386 kts 319°
2026-04-30 19:00 30.73245 -84.28789 35935 ft 385 kts 319°
2026-04-30 19:01 30.81832 -84.36108 35948 ft 383 kts 319°
2026-04-30 19:02 30.88278 -84.41613 35947 ft 383 kts 319°
2026-04-30 19:03 30.96859 -84.48955 35943 ft 382 kts 319°
2026-04-30 19:04 31.05408 -84.56291 35945 ft 381 kts 318°
2026-04-30 19:05 31.13922 -84.63608 35945 ft 379 kts 318°
2026-04-30 19:06 31.22389 -84.70901 35950 ft 377 kts 318°
2026-04-30 19:06 31.28712 -84.76360 35964 ft 376 kts 318°
2026-04-30 19:07 31.35021 -84.81816 35968 ft 376 kts 318°
2026-04-30 19:08 31.43409 -84.89085 35969 ft 375 kts 317°
2026-04-30 19:09 31.49696 -84.94544 35974 ft 375 kts 317°
2026-04-30 19:09 31.53886 -84.98187 35975 ft 375 kts 317°
2026-04-30 19:10 31.62260 -85.05492 35979 ft 375 kts 317°
2026-04-30 19:11 31.68532 -85.10986 35973 ft 375 kts 317°
2026-04-30 19:12 31.72710 -85.14652 35972 ft 375 kts 317°
2026-04-30 19:12 31.76179 -85.17699 35973 ft 375 kts 317°
2026-04-30 19:13 31.84520 -85.25035 35961 ft 374 kts 317°
2026-04-30 19:14 31.88679 -85.28700 35965 ft 373 kts 317°
2026-04-30 19:14 31.92836 -85.32367 35966 ft 373 kts 316°
2026-04-30 19:15 31.96981 -85.36027 35961 ft 372 kts 316°
2026-04-30 19:15 32.03190 -85.41517 35968 ft 371 kts 316°
2026-04-30 19:16 32.07308 -85.45164 35957 ft 370 kts 316°
2026-04-30 19:17 32.13457 -85.50618 35960 ft 368 kts 316°
2026-04-30 19:17 32.19565 -85.56046 35972 ft 366 kts 316°
2026-04-30 19:18 32.25680 -85.61491 35983 ft 365 kts 316°
2026-04-30 19:19 32.29733 -85.65103 35981 ft 365 kts 316°
2026-04-30 19:19 32.35811 -85.70531 35985 ft 365 kts 316°
2026-04-30 19:20 32.39871 -85.74163 35980 ft 366 kts 316°
2026-04-30 19:21 32.45962 -85.79615 35971 ft 366 kts 316°
2026-04-30 19:22 32.54065 -85.86881 35971 ft 367 kts 316°
2026-04-30 19:23 32.66246 -85.97839 35979 ft 366 kts 315°
2026-04-30 19:24 32.72328 -86.03325 35998 ft 365 kts 315°
2026-04-30 19:25 32.82385 -86.12417 35987 ft 363 kts 315°
2026-04-30 19:26 32.90406 -86.19689 35994 ft 362 kts 315°
2026-04-30 19:27 32.96406 -86.25139 35993 ft 361 kts 314°
2026-04-30 19:28 33.02363 -86.30559 36011 ft 360 kts 314°
2026-04-30 19:29 33.10298 -86.37795 36020 ft 358 kts 314°
2026-04-30 19:30 33.18206 -86.45022 36021 ft 357 kts 314°
2026-04-30 19:31 33.26082 -86.52237 36019 ft 356 kts 314°
2026-04-30 19:31 33.31973 -86.57645 36017 ft 356 kts 314°
2026-04-30 19:32 33.35896 -86.61252 36022 ft 356 kts 314°
2026-04-30 19:32 33.39815 -86.64858 36028 ft 355 kts 314°
2026-04-30 19:33 33.43733 -86.68469 36025 ft 355 kts 314°
2026-04-30 19:33 33.47647 -86.72080 36036 ft 355 kts 314°
2026-04-30 19:34 33.51559 -86.75693 36047 ft 355 kts 314°
2026-04-30 19:35 33.57396 -86.81092 36042 ft 355 kts 314°
2026-04-30 19:35 33.61326 -86.84734 36044 ft 354 kts 314°
2026-04-30 19:36 33.65198 -86.88325 36043 ft 354 kts 314°
2026-04-30 19:36 33.71303 -86.93438 36048 ft 359 kts 317°
2026-04-30 19:37 33.75497 -86.96694 36042 ft 359 kts 317°
2026-04-30 19:37 33.79680 -86.99962 36052 ft 359 kts 317°
2026-04-30 19:38 33.83859 -87.03247 36049 ft 359 kts 317°
2026-04-30 19:38 33.88033 -87.06537 36036 ft 359 kts 317°
2026-04-30 19:39 33.92205 -87.09830 36049 ft 358 kts 317°
2026-04-30 19:39 33.96376 -87.13125 36054 ft 358 kts 317°
2026-04-30 19:40 34.00536 -87.16417 36041 ft 358 kts 317°
2026-04-30 19:40 34.04692 -87.19706 36050 ft 357 kts 316°
2026-04-30 19:41 34.08836 -87.22989 36050 ft 356 kts 316°
2026-04-30 19:41 34.12947 -87.26250 36054 ft 356 kts 316°
2026-04-30 19:42 34.17079 -87.29534 36060 ft 355 kts 316°
2026-04-30 19:42 34.21208 -87.32817 36055 ft 355 kts 316°
2026-04-30 19:43 34.25334 -87.36102 36058 ft 355 kts 316°
2026-04-30 19:44 34.31522 -87.41039 36066 ft 355 kts 316°
2026-04-30 19:44 34.35642 -87.44328 36071 ft 355 kts 316°
2026-04-30 19:45 34.39757 -87.47618 36072 ft 354 kts 316°
2026-04-30 19:45 34.43874 -87.50914 36078 ft 355 kts 316°
2026-04-30 19:46 34.47990 -87.54214 36071 ft 354 kts 316°
2026-04-30 19:46 34.52070 -87.57488 36075 ft 354 kts 316°
2026-04-30 19:47 34.56182 -87.60792 36076 ft 354 kts 316°
2026-04-30 19:47 34.60291 -87.64099 36063 ft 355 kts 316°
2026-04-30 19:48 34.64405 -87.67413 36067 ft 355 kts 316°
2026-04-30 19:48 34.68519 -87.70729 36057 ft 355 kts 316°
2026-04-30 19:49 34.72622 -87.74042 36060 ft 354 kts 316°
2026-04-30 19:49 34.78784 -87.79028 36061 ft 354 kts 315°
2026-04-30 19:50 34.82885 -87.82350 36063 ft 354 kts 315°
2026-04-30 19:50 34.86984 -87.85675 36062 ft 354 kts 315°
2026-04-30 19:51 34.91082 -87.89006 36066 ft 354 kts 315°
2026-04-30 19:51 34.95183 -87.92342 36061 ft 354 kts 315°
2026-04-30 19:52 34.99283 -87.95681 36062 ft 354 kts 315°
2026-04-30 19:52 35.03379 -87.99021 36064 ft 354 kts 315°
2026-04-30 19:53 35.07473 -88.02362 36061 ft 354 kts 314°
2026-04-30 19:53 35.11567 -88.05709 36062 ft 355 kts 314°
2026-04-30 19:54 35.15670 -88.09067 36064 ft 355 kts 314°
2026-04-30 19:54 35.19774 -88.12430 36055 ft 355 kts 314°
2026-04-30 19:55 35.23880 -88.15798 36053 ft 355 kts 314°
2026-04-30 19:55 35.27981 -88.19166 36061 ft 355 kts 314°
2026-04-30 19:56 35.32082 -88.22537 36053 ft 354 kts 314°
2026-04-30 19:56 35.36170 -88.25902 36062 ft 354 kts 314°
2026-04-30 19:57 35.40248 -88.29264 36073 ft 353 kts 313°
2026-04-30 19:57 35.44327 -88.32631 36076 ft 353 kts 313°
2026-04-30 19:58 35.48401 -88.35999 36076 ft 353 kts 313°
2026-04-30 19:58 35.52472 -88.39368 36084 ft 353 kts 313°
2026-04-30 19:59 35.56537 -88.42736 36085 ft 353 kts 313°
2026-04-30 20:00 35.61943 -88.47222 36085 ft 352 kts 313°
2026-04-30 20:00 35.65995 -88.50588 36086 ft 351 kts 313°
2026-04-30 20:01 35.72724 -88.56190 36093 ft 351 kts 313°
2026-04-30 20:01 35.76771 -88.59565 36097 ft 351 kts 313°
2026-04-30 20:02 35.82159 -88.64064 36095 ft 351 kts 313°
2026-04-30 20:03 35.88228 -88.69142 36094 ft 352 kts 313°
2026-04-30 20:03 35.92278 -88.72535 36094 ft 352 kts 313°
2026-04-30 20:04 35.96330 -88.75933 36089 ft 352 kts 313°
2026-04-30 20:05 36.02411 -88.81043 36093 ft 353 kts 313°
2026-04-30 20:05 36.08496 -88.86165 36092 ft 353 kts 313°
2026-04-30 20:06 36.12553 -88.89585 36093 ft 353 kts 313°
2026-04-30 20:06 36.16610 -88.93010 36093 ft 353 kts 313°
2026-04-30 20:07 36.20665 -88.96437 36091 ft 353 kts 313°
2026-04-30 20:08 36.26739 -89.01579 36091 ft 352 kts 313°
2026-04-30 20:08 36.30971 -89.04777 36098 ft 365 kts 320°
2026-04-30 20:09 36.35623 -89.07387 36089 ft 368 kts 321°
2026-04-30 20:09 36.42616 -89.11239 36091 ft 365 kts 321°
2026-04-30 20:10 36.49529 -89.15136 36091 ft 362 kts 321°
2026-04-30 20:11 36.56367 -89.19029 36095 ft 361 kts 321°
2026-04-30 20:11 36.60967 -89.21654 36093 ft 361 kts 321°
2026-04-30 20:12 36.67784 -89.25549 36100 ft 361 kts 321°
2026-04-30 20:13 36.72351 -89.28163 36102 ft 361 kts 321°
2026-04-30 20:13 36.76917 -89.30779 36105 ft 361 kts 321°
2026-04-30 20:14 36.81478 -89.33396 36102 ft 361 kts 321°
2026-04-30 20:14 36.86047 -89.36021 36103 ft 362 kts 321°
2026-04-30 20:15 36.90622 -89.38653 36104 ft 362 kts 321°
2026-04-30 20:15 36.95198 -89.41289 36098 ft 362 kts 321°
2026-04-30 20:16 36.99770 -89.43925 36103 ft 362 kts 321°
2026-04-30 20:16 37.04373 -89.46584 36100 ft 362 kts 321°
2026-04-30 20:17 37.08947 -89.49229 35959 ft 364 kts 321°
2026-04-30 20:17 37.11252 -89.50567 35450 ft 364 kts 321°
2026-04-30 20:17 37.13548 -89.51895 34902 ft 360 kts 321°
2026-04-30 20:17 37.15809 -89.53200 34393 ft 356 kts 321°
2026-04-30 20:18 37.18044 -89.54495 33923 ft 351 kts 320°
2026-04-30 20:18 37.20247 -89.55773 33440 ft 347 kts 320°
2026-04-30 20:18 37.22425 -89.57038 32966 ft 343 kts 320°
2026-04-30 20:18 37.24556 -89.58247 32566 ft 339 kts 321°
2026-04-30 20:19 37.26742 -89.59437 32097 ft 336 kts 321°
2026-04-30 20:19 37.28853 -89.60572 31648 ft 332 kts 321°
2026-04-30 20:19 37.30967 -89.61712 31191 ft 329 kts 321°
2026-04-30 20:19 37.33065 -89.62850 30747 ft 328 kts 322°
2026-04-30 20:20 37.35152 -89.63986 30305 ft 327 kts 322°
2026-04-30 20:20 37.37238 -89.65126 29865 ft 327 kts 322°
2026-04-30 20:20 37.39344 -89.66283 29419 ft 334 kts 322°
2026-04-30 20:20 37.41492 -89.67464 28927 ft 338 kts 323°
2026-04-30 20:21 37.43648 -89.68640 28438 ft 336 kts 323°
2026-04-30 20:21 37.45784 -89.69802 27949 ft 333 kts 323°
2026-04-30 20:21 37.47895 -89.70954 27470 ft 329 kts 322°
2026-04-30 20:21 37.50012 -89.72112 26991 ft 325 kts 322°
2026-04-30 20:22 37.52073 -89.73241 26528 ft 322 kts 323°
2026-04-30 20:22 37.54114 -89.74361 26058 ft 318 kts 324°
2026-04-30 20:22 37.56138 -89.75474 25593 ft 316 kts 325°
2026-04-30 20:22 37.58152 -89.76581 25138 ft 315 kts 326°
2026-04-30 20:23 37.60157 -89.77684 24664 ft 314 kts 327°
2026-04-30 20:23 37.62127 -89.78768 24216 ft 312 kts 327°
2026-04-30 20:23 37.64140 -89.79876 23745 ft 311 kts 327°
2026-04-30 20:23 37.66118 -89.80965 23284 ft 310 kts 327°
2026-04-30 20:24 37.68086 -89.82050 22826 ft 308 kts 327°
2026-04-30 20:24 37.70044 -89.83129 22371 ft 306 kts 326°
2026-04-30 20:24 37.71990 -89.84204 21917 ft 305 kts 326°
2026-04-30 20:24 37.73924 -89.85272 21469 ft 303 kts 326°
2026-04-30 20:25 37.77779 -89.87403 20500 ft 301 kts 327°
2026-04-30 20:25 37.79686 -89.88459 20045 ft 299 kts 329°
2026-04-30 20:26 37.83459 -89.90548 19142 ft 296 kts 329°
2026-04-30 20:26 37.87219 -89.92624 18250 ft 293 kts 329°
2026-04-30 20:26 37.89090 -89.93630 17807 ft 291 kts 329°
2026-04-30 20:27 37.92825 -89.95628 16912 ft 287 kts 329°
2026-04-30 20:27 37.96466 -89.97611 16042 ft 283 kts 329°
2026-04-30 20:28 38.00042 -89.99634 15161 ft 279 kts 328°
2026-04-30 20:28 38.03564 -90.01631 14308 ft 275 kts 330°
2026-04-30 20:29 38.07047 -90.03604 13434 ft 274 kts 333°
2026-04-30 20:30 38.12216 -90.06525 12185 ft 271 kts 334°
2026-04-30 20:30 38.17878 -90.07494 10948 ft 273 kts 351°
2026-04-30 20:31 38.23598 -90.08094 10359 ft 283 kts 350°
2026-04-30 20:32 38.29335 -90.08728 9704 ft 266 kts 354°
2026-04-30 20:32 38.32998 -90.09135 9294 ft 265 kts 354°
2026-04-30 20:33 38.34846 -90.09341 9081 ft 267 kts 354°
2026-04-30 20:33 38.38546 -90.09808 8592 ft 264 kts 353°
2026-04-30 20:33 38.40365 -90.10068 8259 ft 262 kts 353°
2026-04-30 20:34 38.43948 -90.10598 7570 ft 259 kts 353°
2026-04-30 20:34 38.47521 -90.11095 6748 ft 262 kts 355°
2026-04-30 20:35 38.49333 -90.11300 6452 ft 258 kts 355°
2026-04-30 20:35 38.51118 -90.11504 6100 ft 258 kts 355°
2026-04-30 20:35 38.54701 -90.11916 5313 ft 259 kts 355°
2026-04-30 20:36 38.56481 -90.12119 4898 ft 254 kts 355°
2026-04-30 20:36 38.58227 -90.12317 4520 ft 251 kts 355°
2026-04-30 20:36 38.61551 -90.12692 4076 ft 227 kts 355°
2026-04-30 20:37 38.63048 -90.13067 3987 ft 216 kts 331°
2026-04-30 20:37 38.64103 -90.14357 4009 ft 209 kts 308°
2026-04-30 20:37 38.64967 -90.15868 3840 ft 212 kts 304°
2026-04-30 20:37 38.65762 -90.17427 3558 ft 204 kts 302°
2026-04-30 20:38 38.66485 -90.18904 3290 ft 187 kts 302°
2026-04-30 20:38 38.67143 -90.20253 3064 ft 172 kts 302°
2026-04-30 20:38 38.67751 -90.21495 2887 ft 155 kts 302°
2026-04-30 20:39 38.68805 -90.23647 2471 ft 136 kts 302°
2026-04-30 20:39 38.69313 -90.24684 2307 ft 139 kts 301°
2026-04-30 20:39 38.69828 -90.25736 2110 ft 140 kts 301°
2026-04-30 20:40 38.70877 -90.27876 1747 ft 144 kts 302°
2026-04-30 20:40 38.71408 -90.28958 1538 ft 141 kts 303°
2026-04-30 20:40 38.71931 -90.30025 1377 ft 142 kts 304°
2026-04-30 20:41 38.72975 -90.32151 997 ft 138 kts 303°
2026-04-30 20:41 38.73478 -90.33186 802 ft 136 kts 303°
2026-04-30 20:41 38.73985 -90.34212 627 ft 135 kts 303°
2026-04-30 20:41 38.74436 -90.35121 582 ft 96 kts 302°
2026-04-30 20:42 38.74672 -90.35601 580 ft 36 kts 299°
2026-04-30 20:42 38.74742 -90.35843 572 ft 21 kts 277°
2026-04-30 20:42 38.74742 -90.36032 572 ft 4 kts 230°
2026-04-30 20:43 38.74722 -90.36041 567 ft 4 kts 181°
2026-04-30 20:43 38.74688 -90.36016 568 ft 13 kts 134°
2026-04-30 20:43 38.74594 -90.35839 575 ft 18 kts 123°
2026-04-30 20:44 38.74475 -90.35598 576 ft 15 kts 122°
2026-04-30 20:44 38.74437 -90.35521 580 ft 15 kts 123°
2026-04-30 20:44 38.74313 -90.35275 580 ft 13 kts 129°
2026-04-30 20:45 38.74161 -90.35355 581 ft 14 kts 211°
2026-04-30 20:45 38.74082 -90.35418 581 ft 14 kts 212°
2026-04-30 20:45 38.74062 -90.35520 577 ft 14 kts 279°
2026-04-30 20:46 38.73883 -90.35581 575 ft 11 kts 121°
2026-04-30 20:46 38.73841 -90.35495 576 ft 11 kts 123°
2026-04-30 20:47 38.73777 -90.35445 580 ft 4 kts 213°
2026-04-30 20:47 38.73753 -90.35467 576 ft 0 kts 215°